Location: Écuvilly
(49.6505°N, 2.9206°E)
Time: 17:24:55
(UTC+00:00)

Cosmos 1484 Rocket - Pass Details

Date: 17 November 2025
Orbit: 442 x 473 km, 97.6° (Epoch: 10 December)

Event Time Altitude Azimuth Distance (km) Brightness Sun altitude
Rises 16:58:24 0° 183° (S) 2,499 6.5 -9.0°
Reaches altitude 10° 17:00:31 10° 191° (SSW) 1,632 5.7 -9.4°
Maximum altitude 17:03:49 38° 262° (W) 736 4.2 -9.9°
Drops below altitude 10° 17:07:11 10° 332° (NNW) 1,658 5.4 -10.4°
Sets 17:09:22 0° 340° (NNW) 2,544 6.3 -10.7°
